This is the latest recevied weather packets stored in our database for station/object WW3TRG. If no packets are shown the sender has not sent any weather packets the latest 10 day(s).
| Time | Temp. | Humidity | Pressure | Rain* | Wind** | Luminosity | Snow |
|---|---|---|---|---|---|---|---|
| 1778110769 | 16.67° C | 99% | 1006.5 hPa | 0 mm | - | 2 W/m² | - |
| 1778110465 | 16.67° C | 99% | 1006.8 hPa | 0 mm | - | 1 W/m² | - |
| 1778110162 | 16.67° C | 99% | 1006.5 hPa | 0 mm | - | 4 W/m² | - |
| 1778109858 | 16.67° C | 99% | 1006.4 hPa | 0 mm | - | 6 W/m² | - |
| 1778109554 | 16.67° C | 99% | 1006.5 hPa | 0 mm | - | 18 W/m² | - |
| 1778109252 | 16.67° C | 99% | 1006.3 hPa | 0.51 mm | - | 6 W/m² | - |
| 1778108949 | 17.22° C | 99% | 1006.2 hPa | 0.51 mm | - | 11 W/m² | - |
| 1778108646 | 17.22° C | 99% | 1006.2 hPa | 0 mm | - | 7 W/m² | - |
| 1778108342 | 17.22° C | 99% | 1006.2 hPa | 0 mm | - | 7 W/m² | - |
| 1778108039 | 17.22° C | 99% | 1006.5 hPa | 0 mm | - | 4 W/m² | - |
| 1778107736 | 17.78° C | 99% | 1006.4 hPa | 0 mm | - | 12 W/m² | - |
| 1778107434 | 17.22° C | 98% | 1006.4 hPa | 0 mm | - | 13 W/m² | - |
| 1778107130 | 17.78° C | 98% | 1006.3 hPa | 0 mm | - | 15 W/m² | - |
| 1778106825 | 17.78° C | 97% | 1006.3 hPa | 0 mm | - | 13 W/m² | - |
| 1778106522 | 17.78° C | 96% | 1006.3 hPa | 0 mm | - | 22 W/m² | - |
| 1778106218 | 17.78° C | 95% | 1006.2 hPa | 0 mm | - | 18 W/m² | - |
| 1778105916 | 17.78° C | 94% | 1006.4 hPa | 0 mm | - | 21 W/m² | - |
| 1778105613 | 18.33° C | 95% | 1005.9 hPa | 0 mm | - | 28 W/m² | - |
| 1778105311 | 18.33° C | 95% | 1006.2 hPa | 0 mm | - | 42 W/m² | - |
| 1778105006 | 18.89° C | 93% | 1006.2 hPa | 0 mm | - | 55 W/m² | - |
| 1778104703 | 18.89° C | 93% | 1006.1 hPa | 0 mm | - | 55 W/m² | - |
| 1778104399 | 18.89° C | 92% | 1005.9 hPa | 0 mm | - | 62 W/m² | - |
| 1778104095 | 18.89° C | 93% | 1006 hPa | 0 mm | - | 95 W/m² | - |
| 1778103792 | 18.89° C | 93% | 1005.7 hPa | 0 mm | - | 71 W/m² | - |
| 1778103490 | 18.89° C | 93% | 1005.9 hPa | 0 mm | - | 98 W/m² | - |
* Rain latest hour (hover to see other rain measurements)
** Current wind speed in m/s (hover to see current wind gust speed)